GLOBALSTAR M095 [+] (39077 NORAD) Tracking and Keplerian Element Data

This shows tracking and keplerian element data for the satellite.

Feedback or suggestion? Click here.




ElementValue
Catalog39077
NameGLOBALSTAR M095 [+]
Epoch Orbit28643
Epoch Day113.73902883
Epoch Year2019
RAAN314.5525
Inclination51.9803
Eccentricity1.31E-05
Argument of Perigee119.9162
Mean Anonmoly240.1717
Mean Motion12.62268002
Decay Rate-1.01E-06
L11 39077U 13005F 19113.73902883 -.00000101 00000-0 12675-4 0 9998
L22 39077 51.9803 314.5525 0000131 119.9162 240.1717 12.62268002286437

Live tracking and technical data element details for GLOBALSTAR M095 [+] (NORAD 39077). GLOBALSTAR M095 [+] can be tracked NOW for your location showing map with azimuth and elevation plus other details from your city location.

Track the satellite on the map from your city or location and see movement details for azimuth, elevation, latitude, longitude, range, height, and movement on the map or in text.







IsCatalogInMostPopularTable: catalog: 39077, numindb: 180
Update: records affected: 1



GetName: 39077 GLOBALSTAR M095 [+]

Hit Count: updated at: Wed, 24 Apr 2019 18:28:20 GMT